User: anonymous   Login
Location: Unspecified
(0.0000°N, 0.0000°E)
Time: 22:29:43
(UTC+00:00)
Language:

VDNH 80 - Orbit

View from above orbital plane
View from above orbital plane
View from above satellite
View from above satellite

Ground track
Ground track

The orbit data is extracted from the following two-line orbital elements,

1 44392U 19038G   21207.53711294  .00001329  00000-0  76982-4 0  9998
2 44392  97.5884 172.0160 0020908 173.4176 252.2157 15.13811373113507
Epoch (UTC): 26 July 2021 12:53:26
Eccentricity: 0.0020908
inclination: 97.5884°
perigee height: 510 km
apogee height: 539 km
right ascension of ascending node: 172.0160°
argument of perigee: 173.4176°
revolutions per day: 15.13811373
mean anomaly at epoch: 252.2157°
orbit number at epoch: 11350

The dashed part of the orbit path shows where the satellite is in the earth's shadow,  

DLR